Location: Unspecified
(0.0000°N, 0.0000°E)
Time: 04:55:45
(UTC+02:00)

Hubble Space Telescope - Visible Passes

Search period start: 19 June 2018 00:00
Search period end: 29 June 2018 00:00
Orbit: 537 x 541 km, 28.5° (Epoch: 18 June)

Date Brightness Start Highest point End Pass type
(mag) Time Alt. Az. Time Alt. Az. Time Alt. Az.
25 Jun 3.9 22:36:44 10° NW 22:37:03 12° NNW 22:37:03 12° NNW visible
26 Jun 3.4 22:26:09 10° NW 22:27:17 17° NW 22:27:17 17° NW visible
27 Jun 3.2 20:36:56 10° N 20:38:29 12° NNE 20:40:03 10° NE visible
27 Jun 2.8 22:15:40 10° NW 22:17:33 26° NW 22:17:33 26° NW visible
28 Jun 2.9 20:25:36 10° NNW 20:28:13 16° NNE 20:30:49 10° ENE visible
28 Jun 2.2 22:05:18 10° WNW 22:07:51 37° WNW 22:07:51 37° WNW visible
